AAL9158 MMSD-MMTO

Flight info

Callsign AAL9158
Flight time 1h 41m
Altitude 35000
Route ILIGA1A ILIGA UT75 PVR UJ14 GDL UT126 ITLAS ITLAS3B
Aircraft A321/M-SDE3FGHIRWY/LB1

Departure

Time 2026-04-24 06:23
Airport Los Cabos International Airport (MMSD)

Arrival

Time 2026-04-24 08:04
Airport Adolfo López Mateos International Airport (MMTO)
Time Latitude Longitude Altitude Speed Heading
2026-04-24 06:03 23.16243 -109.71857 382 ft 0 kts 84°
2026-04-24 06:15 23.16243 -109.71862 382 ft 4 kts 82°
2026-04-24 06:15 23.16235 -109.71888 382 ft 4 kts 43°
2026-04-24 06:15 23.16213 -109.71899 382 ft 3 kts 356°
2026-04-24 06:15 23.16210 -109.71898 382 ft 1 kts 354°
2026-04-24 06:19 23.16220 -109.71900 382 ft 4 kts 354°
2026-04-24 06:19 23.16255 -109.71903 383 ft 5 kts 353°
2026-04-24 06:19 23.16282 -109.71929 383 ft 7 kts 287°
2026-04-24 06:19 23.16295 -109.71978 384 ft 7 kts 311°
2026-04-24 06:20 23.16334 -109.71994 384 ft 6 kts 346°
2026-04-24 06:20 23.16374 -109.72000 385 ft 8 kts 354°
2026-04-24 06:20 23.16452 -109.72009 387 ft 14 kts 354°
2026-04-24 06:20 23.16543 -109.72020 389 ft 12 kts 353°
2026-04-24 06:21 23.16604 -109.72039 390 ft 8 kts 316°
2026-04-24 06:21 23.16610 -109.72100 390 ft 9 kts 264°
2026-04-24 06:21 23.16597 -109.72165 390 ft 9 kts 242°
2026-04-24 06:21 23.16554 -109.72208 391 ft 9 kts 218°
2026-04-24 06:22 23.16490 -109.72221 389 ft 11 kts 185°
2026-04-24 06:22 23.16409 -109.72214 387 ft 17 kts 173°
2026-04-24 06:22 23.16071 -109.72175 379 ft 84 kts 174°
2026-04-24 06:22 23.15271 -109.72084 361 ft 144 kts 174°
2026-04-24 06:23 23.14127 -109.71947 492 ft 176 kts 173°
2026-04-24 06:23 23.12954 -109.71791 1255 ft 168 kts 173°
2026-04-24 06:23 23.11796 -109.71612 1895 ft 168 kts 168°
2026-04-24 06:23 23.10655 -109.71259 2273 ft 179 kts 160°
2026-04-24 06:24 23.09469 -109.70653 2421 ft 199 kts 150°
2026-04-24 06:24 23.08311 -109.69745 2668 ft 210 kts 139°
2026-04-24 06:24 23.07287 -109.68576 3049 ft 216 kts 128°
2026-04-24 06:24 23.06448 -109.67212 3519 ft 218 kts 122°
2026-04-24 06:25 23.05638 -109.65815 3984 ft 219 kts 123°
2026-04-24 06:25 23.04818 -109.64409 4437 ft 221 kts 122°
2026-04-24 06:25 23.03991 -109.62996 4877 ft 223 kts 123°
2026-04-24 06:25 23.03157 -109.61565 5298 ft 225 kts 122°
2026-04-24 06:26 23.02315 -109.60121 5726 ft 227 kts 123°
2026-04-24 06:26 23.01466 -109.58667 6144 ft 229 kts 122°
2026-04-24 06:26 23.00612 -109.57205 6548 ft 230 kts 123°
2026-04-24 06:26 22.99749 -109.55728 6946 ft 232 kts 123°
2026-04-24 06:27 22.98878 -109.54245 7324 ft 234 kts 123°
2026-04-24 06:27 22.97992 -109.52756 7640 ft 239 kts 123°
2026-04-24 06:27 22.97070 -109.51218 7861 ft 246 kts 124°
2026-04-24 06:27 22.96126 -109.49653 8166 ft 250 kts 124°
2026-04-24 06:28 22.95166 -109.48067 8599 ft 251 kts 124°
2026-04-24 06:28 22.94225 -109.46501 9022 ft 253 kts 124°
2026-04-24 06:28 22.93262 -109.44895 9414 ft 254 kts 124°
2026-04-24 06:28 22.92293 -109.43284 9805 ft 256 kts 124°
2026-04-24 06:29 22.91317 -109.41657 10184 ft 258 kts 124°
2026-04-24 06:29 22.90325 -109.40007 10445 ft 268 kts 124°
2026-04-24 06:29 22.89274 -109.38258 10574 ft 285 kts 124°
2026-04-24 06:29 22.88115 -109.36435 10712 ft 302 kts 130°
2026-04-24 06:30 22.86755 -109.34615 10851 ft 319 kts 130°
2026-04-24 06:30 22.85320 -109.32696 10980 ft 337 kts 130°
2026-04-24 06:30 22.83820 -109.30687 11295 ft 346 kts 130°
2026-04-24 06:30 22.82813 -109.29336 11598 ft 349 kts 130°
2026-04-24 06:31 22.81277 -109.27278 12105 ft 353 kts 130°
2026-04-24 06:31 22.79729 -109.25203 12614 ft 356 kts 130°
2026-04-24 06:31 22.78163 -109.23102 13117 ft 359 kts 130°
2026-04-24 06:31 22.76586 -109.20987 13616 ft 362 kts 130°
2026-04-24 06:32 22.74996 -109.18855 14105 ft 365 kts 130°
2026-04-24 06:32 22.73392 -109.16709 14584 ft 368 kts 130°
2026-04-24 06:32 22.71773 -109.14545 15059 ft 371 kts 130°
2026-04-24 06:32 22.70143 -109.12364 15503 ft 374 kts 130°
2026-04-24 06:33 22.68500 -109.10162 15943 ft 377 kts 129°
2026-04-24 06:33 22.66841 -109.07944 16393 ft 380 kts 129°
2026-04-24 06:33 22.65174 -109.05719 16852 ft 382 kts 129°
2026-04-24 06:33 22.63494 -109.03477 17292 ft 385 kts 129°
2026-04-24 06:34 22.61795 -109.01208 17730 ft 388 kts 129°
2026-04-24 06:34 22.60092 -108.98939 18158 ft 391 kts 129°
2026-04-24 06:34 22.58370 -108.96646 18582 ft 393 kts 129°
2026-04-24 06:34 22.56642 -108.94346 18987 ft 396 kts 129°
2026-04-24 06:35 22.54895 -108.92022 19383 ft 399 kts 129°
2026-04-24 06:35 22.53144 -108.89691 19797 ft 401 kts 130°
2026-04-24 06:35 22.51380 -108.87340 20188 ft 404 kts 130°
2026-04-24 06:35 22.49601 -108.84970 20586 ft 406 kts 130°
2026-04-24 06:36 22.47815 -108.82592 20977 ft 409 kts 130°
2026-04-24 06:36 22.46016 -108.80200 21368 ft 411 kts 130°
2026-04-24 06:36 22.44207 -108.77798 21730 ft 414 kts 130°
2026-04-24 06:36 22.42384 -108.75378 22103 ft 416 kts 130°
2026-04-24 06:37 22.40550 -108.72945 22462 ft 418 kts 130°
2026-04-24 06:37 22.38703 -108.70497 22807 ft 421 kts 130°
2026-04-24 06:37 22.36868 -108.68018 23164 ft 424 kts 127°
2026-04-24 06:37 22.35314 -108.65296 23509 ft 428 kts 117°
2026-04-24 06:38 22.34029 -108.62387 23852 ft 430 kts 116°
2026-04-24 06:38 22.32740 -108.59449 24181 ft 433 kts 116°
2026-04-24 06:38 22.31444 -108.56503 24511 ft 435 kts 116°
2026-04-24 06:38 22.30139 -108.53550 24828 ft 437 kts 116°
2026-04-24 06:39 22.28826 -108.50583 25150 ft 439 kts 116°
2026-04-24 06:39 22.27508 -108.47607 25431 ft 441 kts 116°
2026-04-24 06:39 22.26182 -108.44609 25726 ft 443 kts 116°
2026-04-24 06:39 22.24852 -108.41598 26007 ft 445 kts 117°
2026-04-24 06:40 22.23516 -108.38577 26296 ft 447 kts 117°
2026-04-24 06:40 22.22171 -108.35540 26577 ft 449 kts 117°
2026-04-24 06:40 22.20837 -108.32530 26849 ft 451 kts 117°
2026-04-24 06:40 22.19479 -108.29471 27118 ft 453 kts 117°
2026-04-24 06:41 22.18117 -108.26400 27388 ft 455 kts 117°
2026-04-24 06:41 22.16749 -108.23307 27657 ft 457 kts 117°
2026-04-24 06:41 22.15376 -108.20209 27931 ft 459 kts 117°
2026-04-24 06:41 22.13993 -108.17100 28186 ft 461 kts 117°
2026-04-24 06:42 22.12603 -108.13985 28444 ft 462 kts 117°
2026-04-24 06:42 22.11208 -108.10857 28702 ft 464 kts 117°
2026-04-24 06:42 22.09803 -108.07707 28943 ft 466 kts 117°
2026-04-24 06:42 22.08397 -108.04556 29180 ft 468 kts 117°
2026-04-24 06:43 22.06986 -108.01396 29519 ft 467 kts 117°
2026-04-24 06:43 22.05582 -107.98248 29848 ft 466 kts 117°
2026-04-24 06:43 22.04177 -107.95100 30166 ft 466 kts 117°
2026-04-24 06:43 22.02771 -107.91957 30487 ft 465 kts 117°
2026-04-24 06:44 22.01363 -107.88815 30803 ft 465 kts 118°
2026-04-24 06:44 21.99957 -107.85679 31097 ft 464 kts 117°
2026-04-24 06:44 21.98555 -107.82546 31390 ft 464 kts 117°
2026-04-24 06:44 21.97154 -107.79414 31653 ft 464 kts 117°
2026-04-24 06:45 21.95754 -107.76279 31952 ft 464 kts 117°
2026-04-24 06:45 21.94354 -107.73149 32232 ft 463 kts 117°
2026-04-24 06:45 21.92955 -107.70028 32508 ft 463 kts 117°
2026-04-24 06:45 21.91551 -107.66910 32780 ft 462 kts 117°
2026-04-24 06:46 21.90149 -107.63795 33039 ft 462 kts 117°
2026-04-24 06:46 21.88748 -107.60683 33299 ft 462 kts 118°
2026-04-24 06:46 21.87351 -107.57576 33553 ft 461 kts 117°
2026-04-24 06:46 21.85956 -107.54468 33811 ft 461 kts 117°
2026-04-24 06:47 21.84561 -107.51372 34069 ft 459 kts 117°
2026-04-24 06:47 21.83164 -107.48284 34314 ft 459 kts 118°
2026-04-24 06:47 21.81764 -107.45193 34555 ft 459 kts 118°
2026-04-24 06:47 21.80369 -107.42109 34791 ft 458 kts 118°
2026-04-24 06:48 21.78977 -107.39027 34952 ft 458 kts 118°
2026-04-24 06:48 21.76205 -107.32869 34986 ft 457 kts 118°
2026-04-24 06:49 21.73429 -107.26724 34983 ft 456 kts 118°
2026-04-24 06:49 21.70648 -107.20584 34997 ft 456 kts 118°
2026-04-24 06:50 21.67860 -107.14447 34984 ft 457 kts 118°
2026-04-24 06:50 21.65071 -107.08314 35003 ft 457 kts 118°
2026-04-24 06:51 21.62280 -107.02184 35001 ft 457 kts 118°
2026-04-24 06:51 21.59484 -106.96043 35001 ft 457 kts 118°
2026-04-24 06:52 21.56689 -106.89905 35004 ft 457 kts 118°
2026-04-24 06:52 21.53911 -106.83814 35000 ft 457 kts 118°
2026-04-24 06:53 21.51114 -106.77681 35002 ft 457 kts 118°
2026-04-24 06:53 21.48309 -106.71559 35001 ft 457 kts 118°
2026-04-24 06:54 21.45497 -106.65430 34993 ft 457 kts 118°
2026-04-24 06:54 21.42693 -106.59306 34997 ft 457 kts 118°
2026-04-24 06:55 21.39890 -106.53185 35002 ft 457 kts 118°
2026-04-24 06:55 21.37075 -106.47073 34996 ft 457 kts 118°
2026-04-24 06:56 21.34257 -106.40948 34986 ft 457 kts 118°
2026-04-24 06:56 21.31440 -106.34837 34996 ft 457 kts 118°
2026-04-24 06:57 21.28561 -106.28754 35001 ft 457 kts 121°
2026-04-24 06:57 21.25339 -106.22897 34998 ft 456 kts 124°
2026-04-24 06:58 21.21964 -106.17151 34997 ft 456 kts 124°
2026-04-24 06:58 21.18633 -106.11361 35000 ft 456 kts 123°
2026-04-24 06:59 21.15370 -106.05534 35006 ft 456 kts 123°
2026-04-24 06:59 21.12120 -105.99707 35009 ft 455 kts 123°
2026-04-24 07:00 21.08855 -105.93900 35011 ft 455 kts 123°
2026-04-24 07:00 21.05578 -105.88101 35005 ft 455 kts 123°
2026-04-24 07:01 21.02321 -105.82337 35003 ft 457 kts 123°
2026-04-24 07:01 20.98988 -105.76437 34998 ft 468 kts 123°
2026-04-24 07:02 20.95579 -105.70404 34984 ft 479 kts 123°
2026-04-24 07:02 20.92089 -105.64242 34994 ft 488 kts 123°
2026-04-24 07:03 20.88569 -105.58023 34983 ft 489 kts 123°
2026-04-24 07:03 20.85036 -105.51788 34998 ft 490 kts 123°
2026-04-24 07:04 20.81513 -105.45569 34982 ft 489 kts 123°
2026-04-24 07:04 20.77986 -105.39361 34986 ft 489 kts 123°
2026-04-24 07:05 20.74447 -105.33146 34997 ft 489 kts 123°
2026-04-24 07:05 20.70968 -105.26877 35000 ft 491 kts 117°
2026-04-24 07:06 20.68907 -105.19949 34998 ft 492 kts 98°
2026-04-24 07:06 20.68274 -105.12711 35000 ft 493 kts 95°
2026-04-24 07:07 20.67674 -105.05419 35011 ft 493 kts 95°
2026-04-24 07:07 20.66768 -104.94475 35007 ft 493 kts 95°
2026-04-24 07:08 20.66160 -104.87183 35011 ft 493 kts 95°
2026-04-24 07:08 20.65546 -104.79891 35012 ft 493 kts 95°
2026-04-24 07:09 20.64928 -104.72604 35015 ft 493 kts 95°
2026-04-24 07:09 20.64310 -104.65308 35017 ft 493 kts 95°
2026-04-24 07:10 20.63698 -104.58017 35021 ft 493 kts 95°
2026-04-24 07:10 20.63074 -104.50723 35028 ft 493 kts 95°
2026-04-24 07:11 20.62438 -104.43437 35038 ft 493 kts 95°
2026-04-24 07:11 20.61798 -104.36155 35047 ft 493 kts 95°
2026-04-24 07:12 20.61156 -104.28865 35062 ft 493 kts 95°
2026-04-24 07:12 20.60519 -104.21580 35104 ft 491 kts 95°
2026-04-24 07:13 20.59994 -104.15533 35142 ft 492 kts 95°
2026-04-24 07:13 20.59356 -104.08257 35168 ft 492 kts 95°
2026-04-24 07:14 20.58718 -104.00995 35183 ft 492 kts 95°
2026-04-24 07:14 20.58065 -103.93731 35191 ft 491 kts 95°
2026-04-24 07:15 20.57410 -103.86474 35199 ft 492 kts 95°
2026-04-24 07:15 20.56754 -103.79202 35210 ft 492 kts 95°
2026-04-24 07:16 20.56096 -103.71926 35215 ft 492 kts 95°
2026-04-24 07:16 20.55438 -103.64663 35217 ft 492 kts 95°
2026-04-24 07:17 20.54770 -103.57389 35218 ft 492 kts 95°
2026-04-24 07:17 20.54102 -103.50115 35224 ft 493 kts 95°
2026-04-24 07:18 20.53434 -103.42835 35225 ft 493 kts 95°
2026-04-24 07:18 20.52760 -103.35563 35222 ft 493 kts 95°
2026-04-24 07:19 20.52452 -103.28318 35223 ft 491 kts 86°
2026-04-24 07:19 20.52750 -103.20983 35221 ft 492 kts 86°
2026-04-24 07:20 20.53025 -103.13740 35222 ft 492 kts 86°
2026-04-24 07:20 20.53297 -103.06441 35223 ft 492 kts 86°
2026-04-24 07:21 20.53571 -102.99085 35222 ft 493 kts 86°
2026-04-24 07:21 20.53834 -102.91826 35225 ft 493 kts 86°
2026-04-24 07:22 20.54103 -102.84513 35226 ft 493 kts 86°
2026-04-24 07:22 20.54266 -102.77202 35218 ft 494 kts 92°
2026-04-24 07:23 20.53632 -102.69895 35221 ft 495 kts 94°
2026-04-24 07:23 20.52974 -102.62589 35222 ft 495 kts 94°
2026-04-24 07:24 20.52319 -102.55275 35229 ft 495 kts 94°
2026-04-24 07:24 20.51656 -102.47956 35236 ft 495 kts 94°
2026-04-24 07:25 20.50990 -102.40642 35238 ft 495 kts 94°
2026-04-24 07:25 20.50324 -102.33338 35239 ft 494 kts 94°
2026-04-24 07:26 20.49646 -102.26050 35243 ft 494 kts 94°
2026-04-24 07:26 20.48965 -102.18754 35251 ft 494 kts 94°
2026-04-24 07:27 20.48295 -102.11460 35252 ft 494 kts 94°
2026-04-24 07:27 20.47613 -102.04160 35258 ft 494 kts 94°
2026-04-24 07:28 20.46929 -101.96870 35255 ft 494 kts 94°
2026-04-24 07:28 20.46254 -101.89632 35268 ft 494 kts 94°
2026-04-24 07:29 20.45568 -101.82339 35263 ft 494 kts 94°
2026-04-24 07:29 20.44873 -101.75048 35271 ft 494 kts 94°
2026-04-24 07:30 20.44176 -101.67759 35258 ft 494 kts 94°
2026-04-24 07:30 20.43489 -101.60480 35258 ft 494 kts 94°
2026-04-24 07:31 20.42783 -101.53183 35259 ft 494 kts 94°
2026-04-24 07:31 20.42073 -101.45890 35259 ft 495 kts 94°
2026-04-24 07:32 20.41365 -101.38599 35259 ft 495 kts 94°
2026-04-24 07:32 20.40653 -101.31299 35259 ft 495 kts 94°
2026-04-24 07:33 20.39934 -101.24002 35261 ft 496 kts 94°
2026-04-24 07:33 20.39215 -101.16692 35267 ft 495 kts 94°
2026-04-24 07:34 20.38499 -101.09393 35259 ft 495 kts 94°
2026-04-24 07:34 20.37773 -101.02096 35268 ft 495 kts 94°
2026-04-24 07:35 20.37043 -100.94800 35262 ft 495 kts 94°
2026-04-24 07:35 20.36316 -100.87503 35267 ft 495 kts 94°
2026-04-24 07:36 20.35585 -100.80206 35272 ft 495 kts 94°
2026-04-24 07:36 20.34851 -100.72914 35274 ft 495 kts 94°
2026-04-24 07:37 20.34483 -100.69254 34530 ft 501 kts 94°
2026-04-24 07:37 20.34107 -100.65540 33536 ft 507 kts 94°
2026-04-24 07:37 20.33725 -100.61788 32590 ft 510 kts 94°
2026-04-24 07:37 20.33340 -100.58024 31657 ft 512 kts 95°
2026-04-24 07:38 20.32740 -100.54271 30718 ft 516 kts 103°
2026-04-24 07:38 20.31565 -100.50659 29773 ft 518 kts 114°
2026-04-24 07:38 20.29829 -100.47288 28757 ft 521 kts 124°
2026-04-24 07:38 20.27676 -100.44171 27677 ft 524 kts 127°
2026-04-24 07:39 20.25484 -100.41067 26545 ft 526 kts 127°
2026-04-24 07:39 20.23281 -100.37945 25364 ft 528 kts 127°
2026-04-24 07:39 20.21081 -100.34825 24563 ft 523 kts 127°
2026-04-24 07:39 20.18918 -100.31751 23939 ft 515 kts 127°
2026-04-24 07:40 20.16784 -100.28715 23250 ft 509 kts 127°
2026-04-24 07:40 20.14674 -100.25714 22602 ft 502 kts 127°
2026-04-24 07:40 20.12608 -100.22782 22324 ft 487 kts 127°
2026-04-24 07:40 20.10609 -100.19954 22256 ft 468 kts 127°
2026-04-24 07:41 20.08691 -100.17246 22276 ft 448 kts 127°
2026-04-24 07:41 20.06852 -100.14649 22282 ft 432 kts 127°
2026-04-24 07:41 20.05066 -100.12123 22266 ft 424 kts 126°
2026-04-24 07:41 20.03297 -100.09621 22267 ft 422 kts 127°
2026-04-24 07:42 20.01533 -100.07132 22275 ft 422 kts 127°
2026-04-24 07:42 19.99767 -100.04641 22276 ft 421 kts 127°
2026-04-24 07:42 19.97953 -100.02191 22275 ft 422 kts 132°
2026-04-24 07:42 19.95816 -100.00057 21985 ft 422 kts 143°
2026-04-24 07:43 19.93347 -99.98401 21535 ft 418 kts 155°
2026-04-24 07:43 19.90741 -99.97062 21087 ft 414 kts 155°
2026-04-24 07:43 19.88197 -99.95755 20618 ft 396 kts 155°
2026-04-24 07:43 19.85798 -99.94511 20176 ft 383 kts 155°
2026-04-24 07:44 19.83425 -99.93276 19727 ft 378 kts 154°
2026-04-24 07:44 19.81075 -99.92049 19276 ft 374 kts 154°
2026-04-24 07:44 19.78754 -99.90835 18835 ft 370 kts 154°
2026-04-24 07:44 19.76457 -99.89635 18376 ft 367 kts 154°
2026-04-24 07:45 19.74185 -99.88412 17919 ft 364 kts 148°
2026-04-24 07:45 19.72267 -99.86686 17476 ft 360 kts 128°
2026-04-24 07:45 19.71028 -99.84466 17018 ft 344 kts 110°
2026-04-24 07:45 19.70019 -99.82183 16559 ft 341 kts 126°
2026-04-24 07:46 19.68286 -99.80537 16120 ft 335 kts 156°
2026-04-24 07:46 19.66071 -99.79875 15968 ft 331 kts 176°
2026-04-24 07:46 19.63759 -99.79712 15988 ft 334 kts 176°
2026-04-24 07:46 19.61444 -99.79437 15989 ft 335 kts 173°
2026-04-24 07:47 19.59136 -99.79072 15997 ft 335 kts 172°
2026-04-24 07:47 19.56837 -99.78678 16001 ft 335 kts 172°
2026-04-24 07:47 19.54534 -99.78280 16003 ft 335 kts 171°
2026-04-24 07:47 19.52273 -99.77666 16003 ft 336 kts 164°
2026-04-24 07:48 19.50030 -99.76960 16003 ft 336 kts 165°
2026-04-24 07:48 19.47780 -99.76274 16002 ft 336 kts 165°
2026-04-24 07:48 19.45529 -99.75598 16003 ft 336 kts 165°
2026-04-24 07:48 19.43281 -99.74922 16005 ft 335 kts 165°
2026-04-24 07:49 19.41035 -99.74247 16004 ft 336 kts 165°
2026-04-24 07:49 19.38819 -99.73580 15996 ft 325 kts 165°
2026-04-24 07:49 19.36650 -99.72928 16001 ft 323 kts 165°
2026-04-24 07:49 19.34491 -99.72280 16002 ft 323 kts 165°
2026-04-24 07:50 19.32329 -99.71633 16010 ft 323 kts 165°
2026-04-24 07:50 19.30171 -99.70986 16010 ft 322 kts 165°
2026-04-24 07:50 19.28017 -99.70339 16011 ft 322 kts 165°
2026-04-24 07:50 19.25862 -99.69689 16012 ft 322 kts 165°
2026-04-24 07:51 19.23707 -99.69036 16008 ft 322 kts 165°
2026-04-24 07:51 19.21554 -99.68382 16003 ft 322 kts 165°
2026-04-24 07:51 19.19402 -99.67730 16003 ft 322 kts 165°
2026-04-24 07:51 19.17249 -99.67079 16002 ft 322 kts 165°
2026-04-24 07:52 19.15095 -99.66429 16002 ft 322 kts 165°
2026-04-24 07:52 19.12942 -99.65780 16003 ft 322 kts 165°
2026-04-24 07:52 19.10759 -99.65296 16002 ft 321 kts 171°
2026-04-24 07:52 19.08557 -99.64898 16002 ft 321 kts 171°
2026-04-24 07:53 19.06351 -99.64498 16002 ft 321 kts 171°
2026-04-24 07:53 19.04149 -99.64099 16000 ft 322 kts 171°
2026-04-24 07:53 19.01949 -99.63685 15991 ft 321 kts 167°
2026-04-24 07:53 18.99879 -99.62818 15994 ft 321 kts 148°
2026-04-24 07:54 18.98691 -99.61903 15958 ft 316 kts 139°
2026-04-24 07:54 18.97059 -99.60376 15509 ft 312 kts 138°
2026-04-24 07:54 18.95440 -99.58844 15101 ft 312 kts 137°
2026-04-24 07:54 18.93830 -99.57312 14699 ft 310 kts 137°
2026-04-24 07:55 18.92334 -99.55713 14199 ft 303 kts 126°
2026-04-24 07:55 18.91336 -99.53781 13416 ft 298 kts 107°
2026-04-24 07:55 18.90947 -99.51694 13052 ft 279 kts 94°
2026-04-24 07:55 18.90735 -99.49736 12949 ft 259 kts 95°
2026-04-24 07:56 18.90668 -99.47862 12964 ft 254 kts 79°
2026-04-24 07:56 18.91227 -99.46128 12970 ft 249 kts 56°
2026-04-24 07:56 18.92357 -99.44770 12973 ft 246 kts 34°
2026-04-24 07:56 18.93865 -99.43966 12966 ft 243 kts 13°
2026-04-24 07:57 18.95537 -99.43802 12971 ft 241 kts 352°
2026-04-24 07:57 18.97171 -99.44161 12970 ft 241 kts 346°
2026-04-24 07:57 18.98844 -99.44583 12716 ft 259 kts 346°
2026-04-24 07:57 19.00621 -99.45031 12343 ft 262 kts 346°
2026-04-24 07:58 19.02356 -99.45466 12022 ft 250 kts 346°
2026-04-24 07:58 19.04011 -99.45879 11639 ft 239 kts 345°
2026-04-24 07:58 19.05610 -99.46276 11251 ft 232 kts 345°
2026-04-24 07:58 19.07164 -99.46663 10873 ft 228 kts 346°
2026-04-24 07:59 19.08694 -99.47044 10498 ft 224 kts 347°
2026-04-24 07:59 19.10194 -99.47417 10123 ft 219 kts 347°
2026-04-24 07:59 19.11653 -99.47779 9979 ft 213 kts 347°
2026-04-24 07:59 19.13096 -99.48136 9984 ft 213 kts 347°
2026-04-24 08:00 19.14537 -99.48495 9992 ft 213 kts 347°
2026-04-24 08:00 19.15988 -99.48857 9992 ft 215 kts 347°
2026-04-24 08:00 19.17417 -99.49239 9993 ft 213 kts 341°
2026-04-24 08:00 19.18770 -99.49835 10016 ft 203 kts 337°
2026-04-24 08:01 19.19999 -99.50394 9993 ft 185 kts 337°
2026-04-24 08:01 19.21157 -99.50920 9993 ft 179 kts 337°
2026-04-24 08:01 19.22290 -99.51432 9995 ft 176 kts 338°
2026-04-24 08:01 19.23414 -99.51939 9998 ft 175 kts 338°
2026-04-24 08:02 19.24534 -99.52445 10001 ft 175 kts 338°
2026-04-24 08:02 19.25653 -99.52950 9921 ft 176 kts 338°
2026-04-24 08:02 19.26767 -99.53455 9648 ft 173 kts 338°
2026-04-24 08:02 19.27860 -99.53951 9413 ft 169 kts 337°
2026-04-24 08:03 19.28940 -99.54442 9183 ft 168 kts 337°
2026-04-24 08:03 19.30011 -99.54928 8961 ft 166 kts 337°
2026-04-24 08:03 19.31067 -99.55416 8743 ft 165 kts 336°
2026-04-24 08:03 19.32098 -99.55884 8557 ft 158 kts 337°
2026-04-24 08:04 19.33034 -99.56300 8497 ft 125 kts 336°
2026-04-24 08:04 19.33687 -99.56596 8490 ft 85 kts 336°
2026-04-24 08:04 19.34166 -99.56811 8491 ft 62 kts 337°
2026-04-24 08:04 19.34476 -99.56954 8494 ft 39 kts 336°
2026-04-24 08:05 19.34545 -99.57048 8492 ft 12 kts 239°
2026-04-24 08:05 19.34480 -99.57083 8492 ft 12 kts 217°
2026-04-24 08:05 19.34392 -99.57109 8493 ft 16 kts 160°
2026-04-24 08:05 19.34285 -99.57062 8491 ft 18 kts 156°
2026-04-24 08:06 19.34183 -99.57016 8493 ft 11 kts 157°
2026-04-24 08:06 19.34118 -99.56987 8492 ft 11 kts 157°
2026-04-24 08:06 19.34040 -99.56951 8494 ft 9 kts 156°
2026-04-24 08:06 19.34003 -99.56938 8491 ft 3 kts 181°
2026-04-24 08:07 19.33990 -99.56969 8491 ft 7 kts 260°
2026-04-24 08:07 19.33978 -99.57007 8491 ft 2 kts 246°
2026-04-24 08:07 19.33974 -99.57016 8490 ft 0 kts 246°